STRV 1D

导读

STRV 1D是英国国防评估与研究局开发的微型试验卫星,于2000年11月16日在法属圭亚那库鲁由阿丽亚娜5号火箭发射升空,卫星质量约100公斤,作为辅助载荷搭载发射。它与姊妹星STRV 1C一同进入地球同步转移轨道,承担二十余种新兴航天技术与元器件的空间环境试验任务,在恶劣轨道环境中验证新技术,为英国微小卫星技术发展提供了关键试验数据。

基本信息
目录编号:
26611
目录名称:
STRV 1D
国际标识:
2000-072D
轨道中心:
EARTH
卫星名称:
STRV 1D
卫星全名:
--
卫星状态:
在轨 (已飞行9371 天)
发射日期:
2000-11-16 UTC
国别 :
英国 (GB)
星等 :
--
轨道信息
数据来源 国际轨道数据
星历时间: 2026-07-13T18:26:09+0800
22小时前
查看轨道信息
半长轴: 26312.255km
偏心率: 0.7329296
轨道倾角: 7.029°
近地点辐角 195.625°
升交点赤经 2.176°
平近点角 115.947°
近地点: 649.087km
远地点: 39219.149km
周期: 707.941分钟
每日圈数: 2.034069
详细信息
使用方式:
暂无
2D轨道图
3D轨道图
轨道高度分析图
轨道倾角分析图
轨道综合分析图
查看轨道综合分析图